Vorticity
7 7 7 8 8 8 8 8 8 8 8 8 8 8 7 6 6 4 5 6 7 8 8 8 8 7 7 7 6 7 7 7 7
7 8 8 8 8 7 7 7 6 6 6 6 7 7 8 9 10 9 9 7 5 5 5 5 5 5 6 6 8 9 10 10 8
6 7 8 8 9 9 10 10 9 9 9 8 7 6 5 5 6 6 6 5 5 5 5 6 6 6 7 7 8 6 4 4 6
6 6 7 7 7 7 6 6 6 6 6 7 6 5 5 4 4 5 5 5 5 5 5 6 6 6 6 7 7 -1 4 8 8
5 5 5 6 6 6 6 6 6 5 5 5 4 4 4 4 5 5 4 5 5 5 6 6 6 6 6 6 6 5 5 3 6
6 4 4 5 5 5 5 5 5 6 6 5 4 4 4 5 5 5 5 5 5 5 5 5 5 5 5 5 6 6 8 5 3
6 6 5 4 4 4 4 4 5 4 7 6 5 5 6 6 6 5 5 5 5 5 5 5 5 5 5 6 5 5 5 6 7
5 5 6 5 4 4 3 4 5 4 4 7 7 6 7 6 5 4 4 4 4 6 6 7 8 8 9 10 11 11 11 11 10
4 5 5 6 5 6 4 5 3 4 4 7 7 7 6 4 4 5 5 6 7 7 9 10 10 10 10 9 9 9 9 9 9
4 4 4 6 5 7 5 5 6 5 5 9 8 6 4 5 5 7 8 9 10 11 11 10 9 8 7 7 6 6 6 7 7
7 5 3 6 11 7 7 8 6 6 9 9 6 4 5 5 6 8 9 9 9 9 8 7 7 6 6 7 7 7 7 6 6
2 0 -1 -8 -20 12 10 8 9 13 10 6 5 5 5 6 7 7 9 9 8 7 7 7 7 7 7 6 6 7 7 7 7
6 4 8 16 3 8 12 12 12 9 6 4 5 5 6 8 9 9 9 8 7 7 8 7 6 6 6 6 6 6 7 7 7
4 8 3 8 12 5 9 13 10 6 5 5 5 6 7 7 7 8 7 8 8 7 5 6 7 6 6 7 7 7 7 8 8
4 5 4 10 9 5 4 4 11 6 4 5 5 4 5 6 7 8 8 7 6 7 7 6 6 6 7 7 8 8 7 7 6
6 8 3 17 4 11 8 7 15 6 4 4 5 5 5 6 8 9 8 8 6 8 6 7 8 7 7 8 7 6 6 6 5
8 5 10 14 4 -5 -5 36 9 5 4 4 2 4 5 4 7 8 8 7 6 7 6 8 8 8 8 7 7 6 6 5 5
3 9 12 4 2 11 9 18 2 2 1 1 2 5 4 5 6 8 7 7 7 7 7 9 8 8 7 7 6 6 6 6 6
5 14 12 10 1 -5 14 4 13 -2 7 9 4 3 3 4 6 8 8 8 8 8 8 7 7 7 6 5 6 7 6 7 7
4 8 11 7 18 5 8 21 8 3 3 2 3 3 4 4 5 7 8 7 9 9 9 7 7 6 6 6 5 4 5 6 5
Height
3150 3151 3151 3152 3152 3152 3152 3152 3153 3153 3154 3154 3154 3154 3154 3154 3153 3153 3152 3152 3152 3152 3151 3151 3151 3150 3149 3149 3149 3149 3149 3148 3149
3151 3151 3151 3152 3152 3152 3152 3152 3152 3153 3153 3153 3153 3153 3153 3152 3151 3151 3151 3151 3150 3150 3149 3149 3149 3148 3148 3147 3147 3147 3148 3147 3147
3150 3151 3150 3151 3151 3152 3152 3152 3152 3152 3152 3152 3152 3152 3151 3151 3150 3150 3150 3149 3149 3148 3148 3148 3147 3146 3145 3145 3145 3145 3145 3145 3144
3150 3150 3150 3150 3151 3151 3151 3151 3151 3151 3152 3151 3151 3151 3150 3149 3149 3149 3148 3148 3147 3147 3146 3145 3145 3144 3143 3143 3142 3142 3143 3143 3142
3150 3150 3150 3150 3150 3150 3150 3151 3151 3151 3151 3150 3149 3149 3148 3147 3147 3147 3146 3146 3145 3144 3144 3143 3142 3142 3141 3140 3139 3139 3139 3139 3139
3149 3149 3150 3150 3150 3150 3150 3150 3150 3150 3150 3149 3148 3147 3146 3145 3146 3145 3144 3143 3142 3142 3141 3141 3139 3138 3137 3137 3137 3136 3135 3135 3135
3147 3148 3149 3149 3150 3150 3150 3149 3148 3148 3148 3147 3146 3145 3144 3143 3144 3142 3141 3140 3139 3138 3138 3137 3136 3134 3133 3133 3132 3131 3130 3130 3130
3147 3147 3147 3148 3148 3148 3147 3148 3147 3146 3144 3144 3143 3142 3141 3140 3141 3140 3138 3136 3135 3134 3133 3132 3131 3129 3128 3128 3127 3126 3125 3124 3124
3144 3145 3145 3146 3146 3147 3146 3145 3145 3144 3143 3142 3140 3139 3139 3137 3137 3137 3135 3132 3131 3130 3129 3127 3126 3124 3123 3122 3122 3121 3120 3119 3119
3142 3143 3143 3144 3144 3144 3143 3142 3142 3140 3140 3139 3138 3136 3136 3135 3132 3133 3131 3128 3126 3125 3124 3123 3121 3120 3118 3117 3117 3116 3115 3114 3113
3139 3140 3141 3142 3142 3140 3140 3139 3138 3137 3136 3135 3135 3134 3133 3132 3128 3129 3127 3124 3123 3121 3120 3118 3117 3115 3113 3112 3111 3110 3109 3108 3107
3136 3137 3137 3137 3139 3139 3136 3135 3134 3134 3133 3132 3132 3130 3129 3127 3126 3121 3122 3120 3118 3116 3115 3113 3111 3109 3108 3106 3104 3103 3102 3101 3100
3133 3134 3134 3134 3133 3135 3135 3132 3131 3130 3129 3129 3128 3126 3125 3123 3121 3118 3116 3115 3114 3111 3109 3108 3106 3104 3102 3100 3097 3096 3095 3093 3092
3128 3129 3129 3130 3130 3129 3130 3131 3129 3127 3126 3125 3124 3122 3121 3119 3116 3114 3112 3109 3107 3106 3104 3102 3100 3097 3095 3092 3090 3088 3086 3085 3084
3123 3123 3123 3125 3124 3124 3124 3124 3126 3123 3122 3120 3120 3118 3116 3114 3112 3109 3106 3105 3102 3099 3097 3095 3092 3090 3088 3085 3083 3081 3079 3077 3074
3119 3118 3118 3119 3119 3119 3119 3119 3121 3118 3117 3116 3114 3113 3111 3109 3106 3103 3101 3099 3097 3094 3091 3088 3085 3082 3080 3077 3074 3072 3069 3067 3065
3113 3113 3113 3115 3114 3114 3113 3114 3114 3114 3113 3111 3109 3107 3107 3104 3101 3098 3096 3093 3090 3087 3084 3081 3077 3074 3071 3068 3065 3062 3059 3057 3054
3108 3108 3109 3110 3110 3109 3108 3107 3107 3110 3109 3107 3105 3102 3099 3097 3095 3092 3090 3086 3083 3080 3077 3073 3069 3065 3062 3059 3056 3052 3049 3046 3043
3102 3103 3104 3104 3105 3104 3103 3102 3103 3103 3103 3102 3099 3096 3093 3090 3089 3086 3082 3079 3075 3071 3068 3064 3060 3056 3052 3049 3045 3041 3036 3033 3029
3096 3097 3097 3099 3100 3099 3099 3097 3098 3098 3097 3096 3093 3090 3087 3083 3079 3078 3076 3071 3066 3062 3058 3054 3050 3044 3039 3034 3030 3025 3019 3015 3010